Weather History for KBMG - October, 2014

Change the Weather History Date:

Friday, October 17, 2014

  Actual Average Record
Temperature  
Mean Temperature 61 °F 54 °F  
Max Temperature 71 °F 67 °F 78 °F (1998)
Min Temperature 50 °F 42 °F 33 °F (2001)
Degree Days  
Heating Degree Days 4 11  
Month to date heating degree days 146 152  
Since 1 July heating degree days 250 237  
Cooling Degree Days 0 0  
Month to date cooling degree days 10 11  
Year to date cooling degree days 903 924  
Growing Degree Days 11 (Base 50)    
Moisture  
Dew Point 48 °F    
Average Humidity 69    
Maximum Humidity 96    
Minimum Humidity 41    
Precipitation  
Precipitation 0.00 in 0.12 in 0.77 in (2000)
Month to date precipitation 4.31 1.95  
Year to date precipitation 39.05 38.49  
Sea Level Pressure  
Sea Level Pressure 29.76 in    
Wind  
Wind Speed 9 mph (WSW)    
Max Wind Speed 21 mph    
Max Gust Speed 30 mph    
Visibility 10 miles    
Events      
T = Trace of Precipitation, MM = Missing Value Source: NWS Daily Summary

Daily Weather History Graph

Daily Weather History Graph

Search for Another Location

Airport or City:

Trip Planner

Search our weather history database for the weather conditions in past years. The results will help you decide how hot, cold, wet, or windy it might be!

Date:

Astronomy

Oct. 17, 2014 Rise Set
Actual Time 7:58 AM EDT 7:04 PM EDT
Civil Twilight 7:31 AM EDT 7:31 PM EDT
Nautical Twilight 7:00 AM EDT 8:02 PM EDT
Astronomical Twilight 6:29 AM EDT 8:33 PM EDT
Moon 2:04 AM EDT (10/17) 3:49 PM EDT (10/17)
Length of Visible Light 12h 00m
Length of Day
11h 06m
Waning Crescent, 33% of the Moon is Illuminated
Oct 17
Waning Crescent
Oct 23
New
Oct 30
First Quarter
Nov 6
Full
Nov 14
Last Quarter

Hourly Weather History & Observations

Time (EDT) Temp. Dew Point Humidity Pressure Visibility Wind Dir Wind Speed Gust Speed Precip Events Conditions
12:53 AM 51.1 °F 50.0 °F 96% 29.80 in 9.0 mi South 11.5 mph - N/A   Clear
1:20 AM - - N/A% - - South 6.9 mph - N/A   Scattered Clouds
1:53 AM 51.1 °F 50.0 °F 96% 29.78 in 9.0 mi South 8.1 mph - N/A   Clear
2:53 AM 51.1 °F 50.0 °F 96% 29.78 in 9.0 mi South 6.9 mph - N/A   Clear
3:53 AM 51.1 °F 48.9 °F 92% 29.74 in 10.0 mi South 9.2 mph - N/A   Clear
4:53 AM 51.1 °F 48.9 °F 92% 29.72 in 10.0 mi South 8.1 mph - N/A   Clear
5:53 AM 52.0 °F 48.9 °F 89% 29.70 in 10.0 mi SSW 8.1 mph - N/A   Clear
6:53 AM 51.1 °F 48.9 °F 92% 29.71 in 10.0 mi WSW 5.8 mph - N/A   Clear
7:53 AM 51.1 °F 48.9 °F 92% 29.71 in 10.0 mi SW 9.2 mph - N/A   Clear
8:53 AM 54.0 °F 50.0 °F 86% 29.72 in 10.0 mi WSW 10.4 mph - N/A   Clear
9:53 AM 57.0 °F 50.0 °F 77% 29.72 in 10.0 mi SW 11.5 mph 19.6 mph N/A   Clear
10:53 AM 61.0 °F 50.0 °F 67% 29.73 in 10.0 mi West 8.1 mph - N/A   Clear
11:53 AM 64.0 °F 50.0 °F 60% 29.73 in 10.0 mi West 8.1 mph - N/A   Clear
12:53 PM 66.9 °F 48.9 °F 52% 29.72 in 10.0 mi West 9.2 mph - N/A   Clear
1:53 PM 70.0 °F 48.0 °F 46% 29.71 in 10.0 mi West 12.7 mph 21.9 mph N/A   Clear
2:53 PM 71.1 °F 46.9 °F 42% 29.71 in 10.0 mi WNW 11.5 mph 19.6 mph N/A   Clear
3:53 PM 71.1 °F 48.0 °F 44% 29.71 in 10.0 mi West 11.5 mph 18.4 mph N/A   Scattered Clouds
4:53 PM 68.0 °F 46.9 °F 47% 29.74 in 10.0 mi West 16.1 mph 25.3 mph N/A   Mostly Cloudy
5:53 PM 64.0 °F 48.0 °F 56% 29.77 in 10.0 mi NW 11.5 mph 25.3 mph N/A   Overcast
6:53 PM 61.0 °F 46.9 °F 60% 29.81 in 10.0 mi WNW 15.0 mph 25.3 mph N/A   Overcast
7:53 PM 59.0 °F 46.9 °F 64% 29.83 in 10.0 mi WNW 8.1 mph - N/A   Overcast
8:53 PM 59.0 °F 46.0 °F 62% 29.85 in 10.0 mi WNW 8.1 mph - N/A   Overcast
9:53 PM 57.9 °F 46.0 °F 65% 29.86 in 10.0 mi West 8.1 mph - N/A   Overcast
10:53 PM 57.9 °F 46.9 °F 67% 29.86 in 10.0 mi WNW 8.1 mph - N/A   Overcast
11:53 PM 57.0 °F 46.0 °F 67% 29.87 in 10.0 mi WNW 8.1 mph - N/A   Overcast